This demonstration page uses our WeatherBlox Daily Observations layout. Learn more.

Left ArrowRight Arrow

Hourly Observations for October 27, 2021

Temp ( °F °C ) Dew Point ( °F °C ) Humidity (%) Winds ( mph kmh ) Pressure ( in mb ) Visibility ( mi km ) Precip ( " mm )
12:53 am 00:53 Clear 67 19.4 12 -11.1 12 12 W 21 33 29.61 1003 10 16 0.00 0.00
1:53 am 01:53 Clear 64 17.8 12 -11.1 13 13 W 20 31 29.63 1004 10 16 0.00 0.00
2:53 am 02:53 Clear 61 16.1 13 -10.6 15 15 W 13 20 29.66 1004 10 16 0.00 0.00
3:53 am 03:53 Clear 58 14.4 14 -10 18 18 W 9 15 29.68 1005 10 16 0.00 0.00
4:53 am 04:53 Clear 53 11.7 15 -9.4 22 22 W 6 9 29.70 1006 10 16 0.00 0.00
5:53 am 05:53 Clear 54 12.2 16 -8.9 22 22 W 10 17 29.70 1006 10 16 0.00 0.00
6:53 am 06:53 Clear 50 10 17 -8.3 27 27 W 7 11 29.75 1007 10 16 0.00 0.00
7:53 am 07:53 Clear 52 11.1 17 -8.3 25 25 WNW 10 17 29.78 1008 10 16 0.00 0.00
8:53 am 08:53 Sunny 57 13.9 20 -6.7 24 24 NW 22 35 29.80 1009 10 16 0.00 0.00
9:53 am 09:53 Sunny 60 15.6 23 -5 24 24 NW 20 31 29.86 1011 10 16 0.00 0.00
10:53 am 10:53 Sunny 63 17.2 26 -3.3 25 25 NW 20 31 29.88 1012 10 16 0.00 0.00
11:53 am 11:53 Sunny 65 18.3 26 -3.3 23 23 NW 18 30 29.87 1012 10 16 0.00 0.00
12:53 pm 12:53 Sunny 67 19.4 26 -3.3 21 21 WNW 20 31 29.86 1011 10 16 0.00 0.00
1:53 pm 13:53 Sunny 69 20.6 23 -5 17 17 NW 16 26 29.84 1011 10 16 0.00 0.00
2:53 pm 14:53 Sunny 70 21.1 22 -5.6 16 16 WNW 21 33 29.80 1009 10 16 0.00 0.00
3:53 pm 15:53 Sunny 72 22.2 21 -6.1 15 15 W 15 24 29.78 1009 10 16 0.00 0.00
4:53 pm 16:53 Sunny 72 22.2 19 -7.2 13 13 NW 21 33 29.78 1009 10 16 0.00 0.00
5:53 pm 17:53 Sunny 72 22.2 19 -7.2 13 13 WNW 12 19 29.79 1009 10 16 0.00 0.00
6:53 pm 18:53 Sunny 69 20.6 19 -7.2 15 15 WNW 6 9 29.80 1009 10 16 0.00 0.00
7:53 pm 19:53 Clear 63 17.2 13 -10.6 14 14 NW 9 15 29.83 1010 10 16 0.00 0.00
8:53 pm 20:53 Clear 59 15 14 -10 17 17 NW 9 15 29.84 1011 10 16 0.00 0.00
9:53 pm 21:53 Clear 54 12.2 14 -10 20 20 WNW 8 13 29.87 1011 10 16 0.00 0.00
10:53 pm 22:53 Clear 50 10 14 -10 24 24 WNW 3 6 29.90 1012 10 16 0.00 0.00
11:53 pm 23:53 Clear 48 8.9 14 -10 25 25 NNW 6 9 29.90 1013 10 16 0.00 0.00

Powered by AerisWeather